User: anonymous   Login
Location: Ertinghausen
(51.6624°N, 9.7874°E)
Time: 19:22:58
(UTC+00:00)
Language:

Cosmos 2322 Rocket - Orbit

View from above orbital plane
View from above orbital plane
View from above satellite
View from above satellite

Ground track
Ground track

The orbit data is extracted from the following two-line orbital elements,

1 23705U 95058B   24201.82915674  .00000302  00000-0  17943-3 0  9997
2 23705  71.0225 355.3349 0014208 305.5541  54.4257 14.15350607483257
Epoch (UTC): 19 July 2024 19:53:59
Eccentricity: 0.0014208
inclination: 71.0225°
perigee height: 831 km
apogee height: 851 km
right ascension of ascending node: 355.3349°
argument of perigee: 305.5541°
revolutions per day: 14.15350607
mean anomaly at epoch: 54.4257°
orbit number at epoch: 48325

The dashed part of the orbit path shows where the satellite is in the earth's shadow,  

DLR